Tracking 19575 objects as of 19-Feb-2019
HD Live streaming from Space Station
objects crossing your sky now

SL-12 R/B(2)

Track SL-12 R/B(2) now!


NORAD ID: 19076
Int'l Code: 1988-034D
Perigee: 35,755.1 km
Apogee: 35,927.3 km
Inclination: 14.5 °
Period: 1,438.5 minutes
Semi major axis: 42212 km
RCS: 2.2161 m2 (large)
Launch date: April 26, 1988
Source: Commonwealth of Independent States (former USSR) (CIS)
Launch site: TYURATAM MISSILE AND SPACE COMPLEX (TTMTR)

Note: This is a ROCKET BODY
aabbcc
Your satellite tracking list
Your tracking list is empty




NASA's NSSDC Master Catalog

Two Line Element Set (TLE):
1 19076U 88034D   19049.00099172  .00000094  00000-0  00000+0 0  9999
2 19076  14.5270 349.6082 0020391 111.8152  72.3603  1.00102760112417
Source of the keplerian elements: AFSPC